CEB4705 RPVI-RPMD

Flight info

Callsign CEB4705
Flight time N/A
Altitude 39000
Route SABEL1S SABEL W7 LUMVI DCT LINAO LINAO2P
Aircraft A20N/M-SDE2E3FGHIRWXY/LB1

Departure

Time 2026-04-18 10:16
Airport Iloilo International Airport (RPVI)

Arrival

Time N/A
Airport Francisco Bangoy International Airport (RPMD)
Time Latitude Longitude Altitude Speed Heading
2026-04-18 10:04 10.83053 122.49634 134 ft 0 kts 110°
2026-04-18 10:05 10.83057 122.49622 139 ft 2 kts 109°
2026-04-18 10:05 10.83062 122.49606 139 ft 2 kts 109°
2026-04-18 10:05 10.83067 122.49590 139 ft 2 kts 108°
2026-04-18 10:05 10.83072 122.49575 139 ft 2 kts 105°
2026-04-18 10:06 10.83076 122.49558 139 ft 2 kts 96°
2026-04-18 10:06 10.83073 122.49542 141 ft 2 kts 28°
2026-04-18 10:06 10.83067 122.49539 141 ft 0 kts 18°
2026-04-18 10:08 10.83069 122.49539 137 ft 1 kts 18°
2026-04-18 10:09 10.83089 122.49547 139 ft 5 kts 20°
2026-04-18 10:09 10.83130 122.49562 139 ft 8 kts 20°
2026-04-18 10:09 10.83191 122.49585 139 ft 11 kts 20°
2026-04-18 10:09 10.83268 122.49614 139 ft 10 kts 19°
2026-04-18 10:10 10.83341 122.49641 139 ft 11 kts 20°
2026-04-18 10:10 10.83404 122.49665 139 ft 4 kts 19°
2026-04-18 10:10 10.83440 122.49676 139 ft 7 kts 11°
2026-04-18 10:10 10.83491 122.49658 139 ft 9 kts 314°
2026-04-18 10:11 10.83519 122.49590 140 ft 12 kts 289°
2026-04-18 10:11 10.83532 122.49552 138 ft 2 kts 290°
2026-04-18 10:11 10.83541 122.49529 140 ft 5 kts 290°
2026-04-18 10:11 10.83558 122.49483 140 ft 9 kts 294°
2026-04-18 10:12 10.83609 122.49449 141 ft 10 kts
2026-04-18 10:12 10.83686 122.49475 140 ft 13 kts 20°
2026-04-18 10:12 10.83780 122.49510 139 ft 15 kts 21°
2026-04-18 10:12 10.83886 122.49550 139 ft 17 kts 20°
2026-04-18 10:13 10.84008 122.49595 138 ft 20 kts 20°
2026-04-18 10:13 10.84144 122.49645 138 ft 22 kts 20°
2026-04-18 10:13 10.84286 122.49700 139 ft 18 kts 20°
2026-04-18 10:13 10.84297 122.49707 139 ft 1 kts 47°
2026-04-18 10:14 10.84305 122.49723 139 ft 4 kts 67°
2026-04-18 10:14 10.84330 122.49748 139 ft 6 kts 19°
2026-04-18 10:14 10.84346 122.49730 139 ft 4 kts 290°
2026-04-18 10:14 10.84333 122.49713 139 ft 4 kts 208°
2026-04-18 10:15 10.84296 122.49701 139 ft 0 kts 198°
2026-04-18 10:15 10.84023 122.49601 138 ft 79 kts 200°
2026-04-18 10:16 10.83301 122.49334 141 ft 139 kts 200°
2026-04-18 10:16 10.82259 122.48958 299 ft 167 kts 199°
2026-04-18 10:16 10.81200 122.48540 893 ft 163 kts 201°
2026-04-18 10:16 10.80117 122.48070 1343 ft 173 kts 205°
2026-04-18 10:17 10.79006 122.47556 1821 ft 184 kts 205°
2026-04-18 10:17 10.77825 122.46966 2343 ft 192 kts 207°
2026-04-18 10:17 10.76631 122.46331 2932 ft 197 kts 210°
2026-04-18 10:17 10.75452 122.45569 3492 ft 207 kts 225°
2026-04-18 10:18 10.74727 122.44263 3976 ft 223 kts 260°
2026-04-18 10:18 10.74822 122.42656 4438 ft 241 kts 290°
2026-04-18 10:18 10.74910 122.42390 4515 ft 244 kts 292°
2026-04-18 10:18 10.75470 122.41071 4964 ft 262 kts 296°
2026-04-18 10:19 10.76245 122.39318 5644 ft 278 kts 294°
2026-04-18 10:19 10.76949 122.37462 6551 ft 284 kts 290°
2026-04-18 10:19 10.77575 122.35539 7444 ft 289 kts 288°
2026-04-18 10:19 10.78157 122.33562 8332 ft 294 kts 287°
2026-04-18 10:20 10.78734 122.31547 9195 ft 300 kts 288°
2026-04-18 10:20 10.79321 122.29501 10082 ft 303 kts 286°
2026-04-18 10:20 10.79542 122.27325 10607 ft 321 kts 265°
2026-04-18 10:20 10.78937 122.25095 10887 ft 345 kts 244°
2026-04-18 10:21 10.77474 122.23112 11356 ft 357 kts 221°
2026-04-18 10:21 10.75355 122.21803 12108 ft 360 kts 199°
2026-04-18 10:21 10.72889 122.21344 12834 ft 365 kts 179°
2026-04-18 10:21 10.70387 122.21794 13525 ft 369 kts 158°
2026-04-18 10:22 10.68170 122.23106 14167 ft 371 kts 137°
2026-04-18 10:22 10.66523 122.25106 14831 ft 371 kts 118°
2026-04-18 10:22 10.65565 122.27538 15489 ft 373 kts 105°
2026-04-18 10:22 10.64690 122.30038 16141 ft 377 kts 112°
2026-04-18 10:23 10.63438 122.32391 16794 ft 381 kts 122°
2026-04-18 10:23 10.61845 122.34567 17440 ft 385 kts 128°
2026-04-18 10:23 10.60055 122.36611 18071 ft 389 kts 132°
2026-04-18 10:23 10.58168 122.38600 18617 ft 392 kts 133°
2026-04-18 10:24 10.56248 122.40571 19169 ft 394 kts 134°
2026-04-18 10:24 10.54304 122.42558 19729 ft 396 kts 134°
2026-04-18 10:24 10.52357 122.44558 20273 ft 399 kts 133°
2026-04-18 10:24 10.50400 122.46576 20806 ft 401 kts 133°
2026-04-18 10:25 10.48436 122.48606 21350 ft 404 kts 133°
2026-04-18 10:25 10.46458 122.50653 21868 ft 407 kts 133°
2026-04-18 10:25 10.44468 122.52713 22389 ft 410 kts 133°
2026-04-18 10:25 10.42493 122.54756 22900 ft 412 kts 133°
2026-04-18 10:26 10.40473 122.56847 23412 ft 415 kts 133°
2026-04-18 10:26 10.38446 122.58945 23829 ft 418 kts 134°
2026-04-18 10:26 10.36404 122.61057 24249 ft 420 kts 134°
2026-04-18 10:26 10.34346 122.63186 24660 ft 423 kts 134°
2026-04-18 10:27 10.32282 122.65321 25064 ft 425 kts 134°
2026-04-18 10:27 10.30199 122.67474 25448 ft 428 kts 134°
2026-04-18 10:27 10.28104 122.69641 25838 ft 430 kts 134°
2026-04-18 10:27 10.25999 122.71816 26221 ft 433 kts 134°
2026-04-18 10:28 10.23886 122.74000 26603 ft 435 kts 134°